Location: Arbon
(43.0005°N, 0.7472°E)
Time: 22:50:57
(UTC+00:00)

Altair - Pass Details

Date: 03 December 2020
Orbit: 1501 x 1682 km, 47.2° (Epoch: 26 January)

Event Time Altitude Azimuth Distance (km) Brightness Sun altitude
Rises 01:09:54 0° 295° (WNW) 4,651 - -62.9°
Reaches altitude 10° 01:12:57 10° 292° (WNW) 3,660 - -62.5°
Maximum altitude 01:21:59 66° 214° (SW) 1,624 - -61.3°
Drops below altitude 10° 01:31:04 10° 134° (SE) 3,682 - -60.0°
Sets 01:34:09 0° 132° (SE) 4,680 - -59.5°
